Regional Weather Roundup
Issued by NWS

Home | Current Version | Previous Version | Graphics & Text | Print | Product List | Glossary On
Versions: 1 2 3 4 5 6 7 8 9 10 11 12 13 14 15 16 17 18 19 20 21 22 23 24 25 26 27 28 29 30 31 32 33 34 35 36 37 38 39 40 41 42 43 44 45 46 47 48 49 50
000
ASUS45 KBOU 231607
RWRCO

WEATHER ROUNDUP FOR COLORADO
NATIONAL WEATHER SERVICE DENVER/BOULDER CO
900 AM MST THU FEB 23 2017

NOTE: "FAIR" INDICATES FEW OR NO CLOUDS BELOW 12000 FEET WITH NO
SIGNIFICANT WEATHER AND/OR OBSTRUCTIONS TO VISIBILITY.

COZ001>005-013-030-031-231700-
...NORTHWEST COLORADO...

CITY           SKY/WX    TMP DP  RH WIND       PRES   REMARKS
CRAIG          LGT SNOW  26  18  71 W21G26    29.56R WCI  12
HAYDEN         PTSUNNY   25  19  80 W21       29.53R WCI  10
MEEKER         MIX PCPN  26  18  71 W20G25    29.57R WCI  12
MOUNT WERNER   NOT AVBL
STEAMBOAT SPGS CLOUDY    25  23  92 W16       29.50R VSB 1/2 WCI  12
WALDEN         NOT AVBL
$$

COZ006>008-011-231700-
...WEST CENTRAL VALLEYS...

CITY           SKY/WX    TMP DP  RH WIND       PRES   REMARKS
GRAND JUNCTION PTSUNNY   35  17  47 W20G26    29.65R WCI  24
MONTROSE       FAIR      32  16  51 SW16G23   29.65R WCI  21
EAGLE          LGT SNOW  28  19  69 MISG      29.55R
RIFLE          CLOUDY    30  23  75 W17       29.61R WCI  18
DELTA          CLOUDY    39  15  36 W17G28    29.64R
NUCLA          PTSUNNY   32  14  47 W15G22    29.71R WCI  22
$$

COZ017>023-064>068-231700-
...SOUTHWEST COLORADO...

CITY           SKY/WX    TMP DP  RH WIND       PRES   REMARKS
DURANGO        PTSUNNY   30  22  72 W22G29    29.68R WCI  17
CORTEZ         FAIR      32  18  56 W18G24    29.72R WCI  20
PAGOSA SPRINGS CLOUDY    29  19  66 SW21G26   29.64F WCI  16
TELLURIDE      LGT SNOW  17  12  82 NW12G24   29.63R WCI   4
WOLF CREEK PAS HVY SNOW   9   9 100 S37G53    29.51R VSB<1/4 WCI -16
$$

COZ009-010-012-014-032>034-037-058>063-231700-
...CENTRAL COLORADO...

CITY           SKY/WX    TMP DP  RH WIND       PRES   REMARKS
ASPEN          CLOUDY    27  20  75 N9        29.50S HAZE    WCI  18
BUENA VISTA    FLURRIES  27  17  66 W5G18     29.48R WCI  22
COPPER MTN     SNOW      16   3  57 MISG      29.44R VSB 1/2
BERTHOUD PASS  HVY SNOW   9  -2  61 W9        29.43S VSB<1/4 WCI  -5
COTTONWOOD PAS LGT SNOW  23  12  63 SW33G41   29.43S VSB 1   WCI   5
GUNNISON       LGT SNOW  26  14  60 W17G26    29.55R WCI  13
KREMMLING      CLOUDY    34  19  55 W8        29.48S WCI  27
LEADVILLE      MIX PCPN  20   2  45 W7G17     29.45S WCI  11
MONARCH PASS   CLOUDY    10   7  85 W44G51    29.54F VSB<1/4 WCI -15
SALIDA         CLOUDY    30  23  75 W18G33    29.57R VSB 1   WCI  18
SUNLIGHT       NOT AVBL
WILKERSON PASS SNOW      18  12  79 SW17G26   29.43F VSB<1/4 WCI   2
$$

COZ069>075-231700-
...SAN LUIS VALLEY/SANGRE DE CRISTO MOUNTAINS...

CITY           SKY/WX    TMP DP  RH WIND       PRES   REMARKS
ALAMOSA        FAIR      33  20  58 SW30G40   29.55R WCI  19
LA VETA PASS   CLOUDY    25  18  74 N32G60    29.45F WCI   7
SAGUACHE       PTSUNNY   36  25  64 SW13G20   29.49F
$$

COZ035-036-038>040-231700-
...NORTHERN COLORADO FRONT RANGE...

CITY           SKY/WX    TMP DP  RH WIND       PRES   REMARKS
DENVER INTL AP CLOUDY    28  24  85 SE15      29.52F WCI  16
DMNS CITY PARK   N/A     29  22  75 MISG      29.53S
AURORA         CLOUDY    27  23  85 E7        29.52F WCI  19
FRONT RANGE AP CLOUDY    30  28  93 SE10      29.54F FOG     WCI  21
ERIE MUNI ARPT CLOUDY    31  27  84 CALM      29.56R
BOULDER MUN AP LGT SNOW  30  30 100 N3        29.55S
CENTENNIAL     PTSUNNY   30  24  78 N7        29.50F WCI  23
BROOMFIELD     CLOUDY    30  25  80 NE5       29.54  FOG     WCI  25
FORT COLLINS   LGT SNOW  30  28  92 E15G22    29.57R VSB 1   WCI  19
LONGMONT       LGT SNOW  32  30  92 SW5       29.60R WCI  28
$$

COZ041-046-047-076>085-087-088-231700-
...PIKES PEAK/PALMER DIVIDE AND SOUTHERN FOOTHILLS...

CITY           SKY/WX    TMP DP  RH WIND       PRES   REMARKS
COLO. SPRINGS  FAIR      36  21  54 N10       29.47F
A. F. ACADEMY  PTSUNNY   30  22  70 N18       29.46F WCI  18
SCHRIEVER AFB  FAIR      33  21  60 N17G25    29.47F WCI  22
ELLICOTT       FAIR     N/A N/A N/A NE17      29.45F
FALCON         FAIR      32  21  64 N16       29.46F WCI  21
FORT CARSON    PTSUNNY   37  22  54 N14       29.47F
LIMON          FOG       28  28 100 E10       29.50F VSB 1/4 WCI  19
MONUMENT HILL  CLOUDY    25  21  86 N8        29.49F WCI  16
TRINIDAD       FAIR      52  21  29 SW23G35   29.45F
$$

COZ042>045-048>051-090-091-231700-
...NORTHEAST COLORADO...

CITY           SKY/WX    TMP DP  RH WIND       PRES   REMARKS
GREELEY ARPT   FLURRIES  31  29  92 E16       29.57F WCI  20
AKRON          CLOUDY    29  27  92 E16G23    29.56F FOG     WCI  17
BURLINGTON     FOG       35  34  96 E22       29.53F VSB 1/4 WCI  23
WRAY           NOT AVBL
STERLING       MIX PCPN  32  32 100 NE13      29.60F WCI  22
HOLYOKE        FOG       34  32  93 NE22      29.63F VSB 3/4 WCI  22
FORT MORGAN    MIX PCPN  30  29  96 NE18      29.58F WCI  18
$$

COZ086-089-092>099-231700-
...SOUTHEAST COLORADO...

CITY           SKY/WX    TMP DP  RH WIND       PRES   REMARKS
PUEBLO         FAIR      38  22  52 NE13      29.48F
LA JUNTA       FAIR      41  24  51 MISG      29.48F
LAMAR          FAIR      43  28  55 E14       29.46F
SPRINGFIELD      N/A     57  29  34 SW23      29.46F
$$



USA.gov is the U.S. government's official web portal to all federal, state and local government web resources and services.